Regional Weather Roundup
Issued by NWS San Diego, CA

Home | Current Version | Previous Version | Text Only | Print | Product List | Glossary On
Versions: 1 2 3 4 5 6 7 8 9 10 11 12 13 14 15 16 17 18 19 20 21 22 23 24 25 26 27 28 29 30 31 32 33 34 35 36 37 38 39 40 41 42 43 44 45 46 47 48 49 50
000
ASUS46 KSGX 011203
RWRSGX

SAN DIEGO HOURLY WEATHER ROUNDUP
NATIONAL WEATHER SERVICE SAN DIEGO CA
500 AM PDT FRI AUG 01 2014

NOTE: "FAIR" INDICATES FEW OR NO CLOUDS BELOW 12,000 FEET WITH NO
SIGNIFICANT WEATHER AND/OR OBSTRUCTIONS TO VISIBILITY.

CAZ042-043-060-061-PZZ750-775-011300-

GREATER SAN DIEGO AREA

CITY           SKY/WX    TMP DP  RH WIND       PRES   REMARKS
LINDBERGH FLD  CLOUDY    70  63  78 N5        29.91F
POINT LOMA       N/A     68  64  85 NW2         N/A
NATIONAL CITY    N/A     70  65  84 CALM      29.91S
CHULA VISTA      N/A     70  66  87 CALM      29.84S
IMPERIAL BEACH CLOUDY    69  64  84 NW6       29.91S
BROWN FIELD    CLOUDY    68  63  84 CALM      29.91S
MIRAMAR MCAS   CLOUDY    67  62  84 CALM      29.91S
MONTGOMERY FLD CLOUDY    69  63  81 CALM      29.91S

$$

NORTH SAN DIEGO COUNTY

CITY           SKY/WX    TMP DP  RH WIND       PRES   REMARKS
CAMP PENDLETON CLOUDY    70  63  78 CALM      29.89F
OCEANSIDE AP   CLOUDY    70  64  81 CALM      29.89F
VISTA            N/A     68  64  86 CALM      29.88F
CARLSBAD       CLOUDY    69  63  81 CALM      29.89F
DEL MAR          N/A     66  64  92 CALM      29.92S
LA JOLLA SCRIP   N/A     67  65  92 CALM      29.87F
FALLBROOK        N/A     67  67 100 CALM      29.89F
ESCONDIDO        N/A     68  65  89 CALM      29.90F
SAN MARCOS       N/A     67  63  86 CALM      29.87F
POWAY            N/A     68  64  86 CALM      29.90F
R. PENASQUITOS   N/A     68  65  89 CALM      29.90S

$$

EAST SAN DIEGO COUNTY

CITY           SKY/WX    TMP DP  RH WIND       PRES   REMARKS
RAMONA         CLEAR     61  57  87 CALM      29.93S
SANTEE LAKES     N/A     67  64  90 CALM      29.90F
GILLESPIE FLD  MOCLDY    66  64  94 W3        29.92S
LA MESA          N/A     68  65  90 CALM      29.84S
JAMUL            N/A     65  63  92 CALM      29.88S
DESCANSO N       N/A     66  44  44 E1        29.74S
MT. LAGUNA OBS   N/A     73  35  25 NW1       29.78S
CAMPO            N/A     62  52  69 NE3       29.96S

$$

ORANGE COUNTY AND THE LOS ANGELES BASIN

CITY           SKY/WX    TMP DP  RH WIND       PRES   REMARKS
JOHN WAYNE AP  CLOUDY    72  62  71 SE5       29.91S
LAGUNA BEACH     N/A     70  65  83 SE2       29.86S
LAKE FOREST FR   N/A     65  60  84 CALM      29.79F
SANTA ANA        N/A     69  65  85 CALM      29.86S
HUNTINGTON BCH   N/A     68  65  90 CALM      29.93S
LOS ALAMITOS   CLOUDY    68  64  86 S5        29.91S
FULLERTON      CLOUDY    69  63  81 CALM      29.90S
LONG BEACH     CLOUDY    68  63  84 CALM      29.91S
L.A. AP        CLOUDY    67  63  87 CALM      29.92R
L.A. DOWNTOWN  CLEAR     67  62  84 CALM      29.91R

$$

THE INLAND EMPIRE

CITY           SKY/WX    TMP DP  RH WIND       PRES   REMARKS
CORONA         CLEAR     65  63  93 W5        29.92S
CHINO          CLEAR     65  61  87 CALM      29.93S
ONTARIO        CLEAR     69  60  73 CALM      29.92S
RIVERSIDE AP   CLEAR     70  61  73 NW3       29.92S
RIV CYN CREST    N/A     70  65  86 CALM      29.89S
MORENO VALLEY    N/A     68  63  84 CALM        N/A
MARCH ARB      CLEAR     69  60  72 E2        29.94S
HORSETHIEF CYN   N/A     68  58  68 SE3       29.89F
PERRIS           N/A     68  62  81 SE2       29.90F
MENIFEE          N/A     69  64  83 CALM      29.97F
HEMET EAST       N/A     68  56  67 CALM      29.85F
FRENCH VALLEY  FAIR      66  61  82 CALM      29.93F
TEMECULA         N/A     66  64  92 CALM      29.88F

$$

SAN BERNARDINO AND RIVERSIDE COUNTY MOUNTAINS

CITY           SKY/WX    TMP DP  RH WIND       PRES   REMARKS
BIG BEAR AP    CLEAR     50  37  62 CALM      30.31R
BIG BEAR SHEA    N/A     50  37  59 CALM      29.93S
ANGELUS OAKS     N/A     66  39  36 MISG      29.74S
PINE COVE        N/A     71  38  30 N3        29.82F

$$

SOUTHERN DESERT INCLUDING THE COACHELLA VALLEY

CITY           SKY/WX    TMP DP  RH WIND       PRES   REMARKS
PALM SPRINGS   CLEAR     88  58  36 E5        29.84R
THOUSAND PALMS   N/A     87  58  36 SE2       29.78R
THERMAL        PTCLDY    81  69  67 SE6       29.78R
BLYTHE           N/A    N/A N/A N/A MISG      29.82R
IMPERIAL AP    CLEAR     88  73  61 S14       29.78R HX  95
EL CENTRO NAS  CLEAR     87  75  67 SE14      29.78R HX  96
YUMA AZ        MOCLDY    90  67  46 S14       29.81S

$$

UPPER DESERT

CITY           SKY/WX    TMP DP  RH WIND       PRES   REMARKS
VICTORVILLE AP CLEAR     75  50  41 S7        29.99S
HESPERIA         N/A     73  52  46 W3        29.91S
APPLE VALLEY     N/A     69  55  60 CALM      30.06S
GRAY BUTTE AP  NOT AVBL
PALMDALE       CLEAR     76  45  33 SW8       29.97R
LANCASTER      CLEAR     78  46  32 W8        29.95R
EDWARDS AFB    CLEAR     75  44  33 SW8       29.93R
DAGGETT        CLEAR     82  45  27 W6        29.90S
29 PALMS N     CLEAR     83  43  24 NW5       30.00R
NEEDLES        CLEAR     93  55  27 SW9       29.85R

$$

REGIONAL REPORTS

CITY           SKY/WX    TMP DP  RH WIND       PRES   REMARKS
SANTA BARBARA  CLOUDY    64  60  87 E9        29.91R
SANDBERG       CLEAR     77  43  29 N13G18    30.12S
MT. WILSON       N/A     73  32  21 E5          N/A
LAS VEGAS NV   PTCLDY    88  51  28 N5        29.89R
PHOENIX AZ     LGT RAIN  82  66  58 SE9       29.92R
TIJUANA        CLOUDY    66  61  82 N3        29.93S
ENSENADA NW      N/A     67  32  26 W7        29.87F

$$

OFFSHORE ISLANDS

CITY           SKY/WX    TMP DP  RH WIND       PRES   REMARKS
CATALINA ARPT  FOG       62  61  96 SE7       29.94F VSB<1/4
SAN NICOLAS IS CLOUDY   N/A N/A N/A W15       29.90F FOG

$$

MARINE AND OFFSHORE BUOY REPORTS

STATION/POSITION SKY/WX   TEMP    WIND        PRES    SWELL
                          AIR SEA DIR/SP/G            HT/PER/DIR
                          (F)     (DEG/KT/KT) (MB)    (FT/S/D)
TANNER BANKS               64 68  320/ 14/ 17 1013.2S   3/180/11
S CLEMENTE BASIN           67 70  290/  6/  8 1012.6F   3/300/ 7
SAN NICOLAS IS.               65                N/A     2/160/12
SO. S. ROSA ISLA           63 66  310/ 16/ 17 1012.3R   2/12
W. S. BARBARA CH           60 60  310/ 16/ 17 1011.7F   2/300/ 8
S. MONICA BASIN            66 68   80/  2/  4 1012.0F   3/270/ 7
S PEDRO CHANNEL               69                N/A     2/180/13
DANA POINT                    69                N/A     2/180/13
CMP PENDLETON NS              71                N/A     2/220/17
OCEANSIDE OFFSHR              72                N/A     2/210/15
TORREY PINES OTR              74                N/A     2/220/17
LA JOLLA 1                 69 69  210/  1/  2 1012.6F
MISSION BAY BUOY              72                N/A     2/220/15
SAN DIEGO BAY                 76              1013.0F
POINT LOMA SOUTH              72                N/A     2/200/17

$$




USA.gov is the U.S. government's official web portal to all federal, state and local government web resources and services.